TUGSAT-1

operational
NORAD ID: 39091 Int'l Des: 2013-009 Owner: TUG Country: AT
LEOCIRCULARRETROGRADESSO

Über TUGSAT-1

Beschreibung wird geladen...

Live-Position

3D-Globus wird geladen...

Nächste Überflüge

Höhenverlauf

Altitude vs Time

uPlot chart will show altitude changes over time

Zweizeiliger Elementsatz

1 39091U 13009F 26073.48035883 .00000266 00000-0 10502-3 0 9997
2 39091 98.3961 255.2680 0010648 157.2399 202.9262 14.36499380683459
Epoch: 14. März 2026 • Age: 7 hours

Aktueller Status

Höhe 768.4 km
Geschwindigkeit 7.48 km/s
Subsatellitenpunkt 39.51°N, 12.86°W
Startdatum 25. Feb. 2013
Alter 13 years
Typ other

Technische Details

Klassifizierung Payload
Masse 7.00 kg
Trockenmasse 7.00 kg
Gesamtmasse 7.00 kg
Länge 0.20 m
Durchmesser 0.20 m
Spannweite 0.20 m
Form Box
Hersteller TUG/UTIAS
Bus-Typ GNB
Phasenstatus In Orbit
Besitzer/Staat TUG/AT

Große Konstellationen

Loading constellations...